[[{"header":{"parameterUnit":"m.s-1","parameterCategory":1,"la1":30.2991,"la2":30.254,"lo1":-89.0895,"lo2":-89.0444,"dy":0.0017,"dx":0.0017,"nx":28,"ny":28,"refTime":"2024-03-12T09:00:00:Z","depth":0,"parameterNumber":2,"parameterNumberName":"U-component_of_WINDS"},"data":[0,0,0,0,0,0,0,0,0,0,0,0,0,0,0,0,0,0,0,0,0,0,0,0,0,0,0,0,0,0,0,0,0,0,0,0,0,0,0,0,0,0,0,0,0,0,0,0,0,0,0,0,0,0,0,0,0,0,-1.6713,-1.6713,0,-1.6679,-1.6679,-1.6678,-1.6609,-1.6608,-1.6606,-1.6605,-1.6572,-1.6573,-1.6573,0,0,0,0,0,0,0,0,0,0,0,0,0,-1.6722,-1.6723,-1.6713,-1.6713,-1.6712,-1.6679,-1.6679,-1.6678,-1.6609,-1.6608,-1.6606,-1.6605,-1.6572,-1.6573,-1.6573,0,0,0,0,0,0,0,0,0,0,0,0,0,-1.6706,-1.6723,-1.6713,-1.6674,-1.667,-1.6679,-1.6678,-1.6678,-1.661,-1.6608,-1.6606,-1.6604,-1.6572,-1.6573,-1.6573,-1.6618,0,0,-1.6575,-1.6575,0,0,0,0,0,0,0,0,-1.6707,-1.6706,-1.668,-1.6677,-1.6672,-1.6646,-1.667,-1.6658,-1.661,-1.6633,-1.6605,-1.6603,-1.6599,-1.6597,-1.6595,-1.6617,-1.6615,-1.6575,-1.6576,-1.6576,-1.6576,0,0,0,0,0,0,0,-1.6709,-1.6707,-1.67,-1.668,-1.6675,-1.6659,-1.6655,-1.6667,-1.6628,-1.6631,-1.6626,-1.6622,-1.6596,-1.6595,-1.6594,-1.6615,-1.6575,-1.6576,-1.6576,-1.6576,-1.6674,-1.6676,0,0,0,0,0,0,-1.6715,-1.6709,-1.6701,-1.6698,-1.6685,-1.6661,-1.6656,-1.6657,-1.6627,-1.6621,-1.6624,-1.6619,-1.6595,-1.6593,-1.6593,-1.6644,-1.6576,-1.6576,-1.6577,-1.6672,-1.6675,-1.6677,0,0,0,0,0,0,-1.6715,-1.6715,-1.6702,-1.6702,-1.6699,-1.6663,-1.6665,-1.6657,-1.6655,-1.6622,-1.6615,-1.663,-1.6593,-1.6592,-1.6613,-1.6642,-1.6577,-1.6577,-1.6669,-1.6673,-1.6676,-1.6748,0,0,0,0,0,0,-1.6716,-1.6715,-1.6731,-1.6703,-1.67,-1.6722,-1.6666,-1.6658,-1.6656,-1.665,-1.6626,-1.662,-1.6591,-1.6612,-1.6613,-1.6642,-1.6578,-1.6667,-1.6671,-1.6675,-1.6743,-1.6754,-1.6763,0,0,0,0,0,-1.6717,-1.6753,-1.6732,-1.6732,-1.6718,-1.6724,-1.6722,-1.6687,-1.6659,-1.6675,-1.6655,-1.6621,-1.6639,-1.6615,-1.6616,-1.6645,-1.6665,-1.667,-1.6675,-1.6739,-1.6752,-1.6762,0,0,0,0,0,0,-1.6785,-1.6748,-1.6725,-1.6753,-1.6742,-1.6712,-1.6731,-1.6702,-1.6699,-1.6693,-1.6652,-1.6647,-1.6674,-1.6662,-1.6635,-1.6688,-1.6647,-1.6652,-1.6695,-1.6707,-1.6717,-1.6719,-1.6578,0,0,0,0,0,-1.6804,-1.681,-1.6778,-1.6806,-1.6802,-1.6768,-1.6769,-1.6744,-1.6731,-1.6726,-1.6706,-1.6696,-1.67,-1.6703,-1.6704,-1.6741,-1.6736,-1.6762,-1.6772,-1.678,-1.6785,-1.6806,-1.6818,-1.6694,-1.6694,-1.6694,0,0,-1.6842,-1.6822,-1.6829,-1.6819,-1.6808,-1.6817,-1.6764,-1.6775,-1.6782,-1.6728,-1.6746,-1.6732,-1.6718,-1.6748,-1.676,-1.6739,-1.6819,-1.6787,-1.6794,-1.6794,-1.6812,-1.6824,-1.6835,-1.6697,-1.6697,-1.6696,0,0,-1.6915,-1.6901,-1.6923,-1.6913,-1.6897,-1.6874,-1.688,-1.6855,-1.6844,-1.6862,-1.6822,-1.683,-1.6837,-1.6829,-1.6826,-1.69,-1.6869,-1.6902,-1.6953,-1.6974,-1.6983,-1.6992,-1.7019,-1.703,-1.6907,-1.6907,-1.6907,0,-1.6965,-1.6976,-1.6939,-1.6953,-1.6951,-1.6903,-1.6926,-1.6918,-1.6903,-1.6904,-1.688,-1.6888,-1.6875,-1.6904,-1.6922,-1.6921,-1.6927,-1.6904,-1.6985,-1.6993,-1.7,-1.7026,-1.7036,-1.6911,-1.6911,-1.6911,-1.691,0,-1.7038,-1.7047,-1.7067,-1.7054,-1.7054,-1.7073,-1.704,-1.7045,-1.7021,-1.7002,-1.7023,-1.7006,-1.7004,-1.7009,-1.6985,-1.7035,-1.7022,-1.6992,-1.6949,-1.7017,-1.704,-1.705,-1.6917,-1.6916,-1.6915,-1.6914,0,0,-1.7152,-1.712,-1.7128,-1.7122,-1.7102,-1.7108,-1.7126,-1.7124,-1.713,-1.7122,-1.7137,-1.7145,-1.7118,-1.7115,-1.709,-1.7108,-1.717,-1.7077,-1.7076,-1.7095,-1.7225,-1.7248,-1.726,-1.715,-1.7152,-1.7153,-1.7227,0,-1.7221,-1.7248,-1.7217,-1.7252,-1.726,-1.7216,-1.7232,-1.7222,-1.7205,-1.7211,-1.7193,-1.72,-1.7163,-1.7161,-1.7178,-1.7159,-1.7196,-1.7153,-1.7164,-1.7165,-1.7169,-1.7272,-1.7295,-1.7365,-1.7236,-1.7237,-1.7238,0,-1.7305,-1.7301,-1.7337,-1.7316,-1.7318,-1.7333,-1.733,-1.7336,-1.7325,-1.7311,-1.7309,-1.728,-1.7298,-1.7257,-1.7282,-1.7254,-1.7257,-1.7249,-1.7251,-1.7251,-1.7205,-1.7274,-1.7386,-1.7397,-1.7252,-1.7251,-1.725,0,-1.7386,-1.739,-1.7412,-1.7408,-1.7384,-1.7396,-1.7387,-1.7374,-1.7375,-1.7373,-1.7374,-1.7374,-1.7375,-1.7376,-1.7349,-1.7321,-1.7378,-1.7334,-1.7368,-1.7369,-1.7381,-1.7381,-1.7496,-1.7384,-1.7384,-1.7384,-1.7383,0,-1.7466,-1.749,-1.7448,-1.7462,-1.7488,-1.7453,-1.748,-1.7466,-1.7455,-1.7467,-1.7429,-1.7441,-1.7404,-1.7413,-1.7392,-1.7416,-1.7417,-1.7407,-1.7401,-1.7411,-1.7412,-1.7412,-1.7406,-1.7386,-1.7386,-1.7385,-1.7385,0,-1.756,-1.7533,-1.7554,-1.753,-1.7525,-1.7546,-1.7526,-1.7538,-1.752,-1.7536,-1.7537,-1.7509,-1.7517,-1.749,-1.7494,-1.748,-1.7517,-1.7503,-1.752,-1.7516,-1.7552,-1.7549,-1.767,-1.7685,-1.7564,-1.7565,-1.7566,0,-1.7613,-1.763,-1.7608,-1.7613,-1.7606,-1.7614,-1.7616,-1.7583,-1.7587,-1.7577,-1.7591,-1.7596,-1.7599,-1.7614,-1.7595,-1.7599,-1.7585,-1.7627,-1.7585,-1.7594,-1.7586,-1.7585,-1.7588,-1.7636,-1.7637,-1.7638,-1.7639,0,-1.771,-1.7696,-1.7699,-1.7699,-1.7702,-1.77,-1.7696,-1.7702,-1.7667,-1.7674,-1.7682,-1.7684,-1.7688,-1.7695,-1.7694,-1.7686,-1.7658,-1.7653,-1.7661,-1.7671,-1.768,-1.7676,-1.7544,-1.765,-1.7649,-1.7648,-1.7648,-1.7647,-1.7785,-1.7799,-1.7787,-1.7792,-1.7786,-1.7783,-1.7794,-1.7778,-1.7784,-1.7785,-1.7766,-1.7778,-1.7769,-1.7766,-1.7761,-1.7771,-1.7752,-1.7764,-1.7766,-1.777,-1.7776,-1.7679,-1.7771,-1.7771,-1.7771,-1.777,-1.777,0,-1.7881,-1.7871,-1.7877,-1.7872,-1.7878,-1.785,-1.7845,-1.7851,-1.7862,-1.7856,-1.7859,-1.787,-1.7876,-1.7859,-1.7863,-1.7875,-1.7862,-1.7877,-1.7876,-1.7875,-1.7793,-1.7786,-1.7887,-1.7887,-1.7887,-1.7887,-1.7887,-1.7887,-1.7931,-1.7954,-1.794,-1.796,-1.795,-1.7961,-1.7961,-1.7959,-1.7954,-1.7967,-1.7972,-1.796,-1.795,-1.7954,-1.7959,-1.7954,-1.7958,-1.7978,-1.7968,-1.7892,-1.788,-1.7869,-1.7862,-1.7979,-1.7979,-1.8049,-1.805,-1.805]},{"header":{"parameterUnit":"m.s-1","parameterCategory":1,"la1":30.2991,"la2":30.254,"lo1":-89.0895,"lo2":-89.0444,"dy":0.0017,"dx":0.0017,"nx":28,"ny":28,"refTime":"2024-03-12T09:00:00:Z","depth":0,"parameterNumber":3,"parameterNumberName":"V-component_of_WINDS"},"data":[0,0,0,0,0,0,0,0,0,0,0,0,0,0,0,0,0,0,0,0,0,0,0,0,0,0,0,0,0,0,0,0,0,0,0,0,0,0,0,0,0,0,0,0,0,0,0,0,0,0,0,0,0,0,0,0,0,0,3.2681,3.2681,0,3.2694,3.2694,3.2695,3.2731,3.2731,3.2732,3.2733,3.2743,3.2742,3.2742,0,0,0,0,0,0,0,0,0,0,0,0,0,3.2684,3.2684,3.2681,3.2681,3.2681,3.2694,3.2694,3.2695,3.273,3.2731,3.2732,3.2733,3.2743,3.2742,3.2742,0,0,0,0,0,0,0,0,0,0,0,0,0,3.2688,3.2684,3.2681,3.2701,3.2703,3.2694,3.2694,3.2695,3.273,3.2731,3.2733,3.2734,3.2743,3.2742,3.2742,3.2714,0,0,3.2739,3.2739,0,0,0,0,0,0,0,0,3.2688,3.2688,3.2698,3.27,3.2702,3.2712,3.2699,3.2701,3.273,3.272,3.2733,3.2734,3.2731,3.2732,3.2731,3.2714,3.2715,3.2739,3.2739,3.2739,3.2738,0,0,0,0,0,0,0,3.2688,3.2688,3.2686,3.2698,3.27,3.2708,3.271,3.27,3.2719,3.2721,3.2723,3.2725,3.2733,3.2732,3.2732,3.2715,3.2739,3.2739,3.2738,3.2738,3.2676,3.2675,0,0,0,0,0,0,3.2685,3.2687,3.2686,3.2687,3.2698,3.2707,3.2709,3.2707,3.2719,3.2722,3.2724,3.2726,3.2733,3.2733,3.2732,3.2701,3.2739,3.2738,3.2738,3.2677,3.2675,3.2674,0,0,0,0,0,0,3.2685,3.2685,3.2685,3.2688,3.2688,3.2706,3.2703,3.2707,3.2707,3.2721,3.2724,3.272,3.2734,3.2733,3.2718,3.2702,3.2738,3.2737,3.2678,3.2676,3.2675,3.2638,0,0,0,0,0,0,3.2685,3.2684,3.2675,3.2687,3.2688,3.2672,3.2702,3.2706,3.2706,3.2709,3.2718,3.2721,3.2734,3.2719,3.2718,3.2701,3.2736,3.268,3.2678,3.2675,3.264,3.2635,3.263,0,0,0,0,0,3.2685,3.2663,3.2674,3.2673,3.2677,3.2671,3.2671,3.2688,3.2704,3.2694,3.2704,3.2721,3.2704,3.2717,3.2716,3.2699,3.2681,3.2678,3.2676,3.2643,3.2636,3.263,0,0,0,0,0,0,3.2646,3.2665,3.2677,3.2659,3.2663,3.2677,3.2665,3.268,3.2679,3.2683,3.2703,3.2704,3.2687,3.2691,3.2706,3.2673,3.2695,3.2692,3.2671,3.2664,3.2659,3.2658,3.2736,0,0,0,0,0,3.2636,3.263,3.2647,3.2628,3.263,3.2647,3.2645,3.2658,3.2663,3.2665,3.2673,3.2676,3.2672,3.2668,3.2665,3.2641,3.2644,3.2629,3.2624,3.2619,3.2616,3.2605,3.2598,3.2665,3.2665,3.2665,0,0,3.2613,3.2623,3.2618,3.2621,3.2626,3.2619,3.2648,3.264,3.2635,3.2663,3.265,3.2656,3.2661,3.2642,3.2634,3.2645,3.2598,3.2616,3.2612,3.2612,3.2601,3.2595,3.2589,3.2663,3.2663,3.2664,0,0,3.257,3.2576,3.2563,3.2567,3.2575,3.2587,3.2583,3.2595,3.26,3.2588,3.2609,3.2603,3.2595,3.2598,3.2598,3.2556,3.2572,3.2554,3.2527,3.2515,3.251,3.2505,3.2491,3.2485,3.2551,3.2551,3.2551,0,3.2541,3.2533,3.2553,3.2544,3.2545,3.2571,3.2557,3.256,3.2565,3.2565,3.2578,3.2569,3.2573,3.2556,3.2546,3.2545,3.2541,3.2553,3.2509,3.2505,3.2501,3.2487,3.2481,3.2549,3.2549,3.2549,3.255,0,3.2498,3.2492,3.2479,3.2486,3.2485,3.2473,3.2491,3.2487,3.25,3.251,3.2497,3.2504,3.2503,3.2499,3.2511,3.2483,3.249,3.2506,3.2528,3.2492,3.2479,3.2474,3.2546,3.2547,3.2547,3.2548,0,0,3.243,3.2448,3.2443,3.2447,3.2457,3.2453,3.2442,3.2442,3.2439,3.2442,3.2433,3.2426,3.2441,3.2441,3.2454,3.2443,3.241,3.246,3.2461,3.2451,3.238,3.2369,3.2362,3.2421,3.242,3.2419,3.238,0,3.2389,3.2373,3.2391,3.2371,3.2366,3.2391,3.2381,3.2386,3.2395,3.2391,3.2401,3.2396,3.2416,3.2416,3.2407,3.2416,3.2396,3.2419,3.2412,3.2412,3.2411,3.2356,3.2343,3.2306,3.2375,3.2374,3.2374,0,3.234,3.2342,3.2322,3.2335,3.2333,3.2324,3.2326,3.2323,3.2328,3.2336,3.2336,3.2352,3.2342,3.2364,3.235,3.2365,3.2363,3.2367,3.2366,3.2366,3.2391,3.2355,3.2295,3.2289,3.2366,3.2367,3.2367,0,3.2294,3.2291,3.2279,3.2281,3.2295,3.2288,3.2294,3.2301,3.23,3.2301,3.2301,3.23,3.23,3.2299,3.2314,3.2328,3.2298,3.2321,3.2303,3.2303,3.2296,3.2296,3.2235,3.2294,3.2294,3.2294,3.2294,0,3.2247,3.2233,3.2258,3.2251,3.2237,3.2257,3.2242,3.2249,3.2256,3.225,3.227,3.2264,3.2284,3.2279,3.2291,3.2277,3.2277,3.2282,3.2285,3.228,3.228,3.228,3.2283,3.2292,3.2293,3.2293,3.2293,0,3.2193,3.2209,3.2197,3.2212,3.2215,3.2204,3.2216,3.2209,3.222,3.2212,3.2211,3.2227,3.2223,3.2238,3.2235,3.2243,3.2224,3.2231,3.2222,3.2224,3.2206,3.2208,3.2143,3.2135,3.2198,3.2198,3.2197,0,3.2162,3.2153,3.2166,3.2165,3.2169,3.2165,3.2165,3.2184,3.2183,3.2189,3.2182,3.2179,3.2179,3.2171,3.2182,3.218,3.2188,3.2165,3.2187,3.2183,3.2188,3.2189,3.2188,3.216,3.216,3.2159,3.2158,0,3.2106,3.2115,3.2114,3.2116,3.2115,3.2118,3.2121,3.2118,3.2138,3.2136,3.2132,3.2132,3.2131,3.2128,3.2129,3.2133,3.2149,3.2151,3.2147,3.2142,3.2138,3.2141,3.221,3.2153,3.2153,3.2154,3.2154,3.2154,3.2063,3.2056,3.2065,3.2064,3.2069,3.2072,3.2066,3.2076,3.2074,3.2076,3.2087,3.2081,3.2087,3.2091,3.2094,3.2089,3.21,3.2093,3.2092,3.209,3.2087,3.2138,3.2089,3.2089,3.2089,3.209,3.209,0,3.2009,3.2016,3.2015,3.202,3.2018,3.2034,3.2039,3.2037,3.2032,3.2037,3.2036,3.2032,3.203,3.2041,3.204,3.2035,3.2042,3.2034,3.2034,3.2035,3.2078,3.2082,3.2028,3.2028,3.2028,3.2028,3.2028,3.2028,3.1981,3.197,3.198,3.1971,3.1978,3.1974,3.1976,3.1978,3.1983,3.1978,3.1976,3.1984,3.1991,3.1991,3.199,3.1993,3.1992,3.1981,3.1987,3.2026,3.2032,3.2038,3.2042,3.1981,3.1981,3.1945,3.1945,3.1944]}]]